Greenville, ME

9:26 PM EST on November 16, 2019 (GMT -0500)
Greenville

Weather History for KGNR - September, 2019

Change the Weather History Date:

Tuesday, September 3, 2019

  Actual Average (WUND) Record (WUND)
Temperature  
Mean Temperature 59 °F -  
Max Temperature 64 °F - - (-1)
Min Temperature 54 °F - - (-1)
Degree Days  
Heating Degree Days 6    
Growing Degree Days 9 (Base 50)    
Moisture  
Dew Point 53 °F    
Average Humidity 86    
Maximum Humidity 100    
Minimum Humidity 58    
Precipitation  
Precipitation 0.00 in - - ()
Sea Level Pressure  
Sea Level Pressure 30.03 in    
Wind  
Wind Speed 4 mph ()    
Max Wind Speed 9 mph    
Max Gust Speed -    
Averages and records for this station are not official NWS values.
T = Trace of Precipitation, MM = Missing Value Source: Averaged Metar Reports

Daily Weather History Graph

Daily Weather History Graph

Search for Another Location

Airport or City:

Astronomy

Sep. 03, 2019 Rise Set
Actual Time 6:01 AM EDT 7:12 PM EDT
Civil Twilight 5:31 AM EDT 7:43 PM EDT
Nautical Twilight 4:54 AM EDT 8:19 PM EDT
Astronomical Twilight 4:15 AM EDT 8:58 PM EDT
Moon 11:04 AM EDT (9/3) 9:52 PM EDT (9/3)
Length of Visible Light 14h 11m
Length of Day
13h 10m
Waxing Crescent, 24% of the Moon is Illuminated
Sep 3
Waxing Crescent
Sep 5
First Quarter
Sep 14
Full
Sep 21
Last Quarter
Sep 28
New

Hourly Weather History & Observations

Time (EDT) Temp. Dew Point Humidity Pressure Visibility Wind Dir Wind Speed Gust Speed Precip Events Conditions
12:56 AM 55.0 °F 54.0 °F 96% 29.95 in - NNE 3.5 mph - N/A   Unknown
1:56 AM 55.9 °F 55.0 °F 97% 29.97 in - Calm Calm - N/A   Unknown
2:56 AM 55.9 °F 54.0 °F 93% 29.96 in - North 3.5 mph - N/A   Unknown
3:56 AM 57.0 °F 55.9 °F 96% 29.95 in - Calm Calm - N/A   Unknown
4:56 AM 55.9 °F 54.0 °F 93% 29.96 in - North 6.9 mph - N/A   Unknown
5:56 AM 57.0 °F 55.0 °F 93% 29.98 in - NNW 4.6 mph - N/A   Unknown
6:56 AM 57.9 °F 55.9 °F 93% 30.01 in - NW 3.5 mph - N/A   Unknown
7:56 AM 55.9 °F 55.0 °F 97% 30.03 in - NNW 6.9 mph - N/A   Unknown
8:56 AM 54.0 °F 52.0 °F 93% 30.05 in - North 6.9 mph - N/A   Unknown
9:56 AM 55.0 °F 52.0 °F 89% 30.06 in - North 8.1 mph - N/A   Unknown
10:56 AM 57.0 °F 53.1 °F 87% 30.06 in - North 5.8 mph - N/A   Unknown
11:56 AM 57.0 °F 53.1 °F 87% 30.06 in - NW 8.1 mph - N/A   Unknown
12:56 PM 57.9 °F 53.1 °F 84% 30.07 in - NNW 8.1 mph - N/A   Unknown
1:56 PM 61.0 °F 53.1 °F 75% 30.06 in - NNW 9.2 mph - N/A   Unknown
2:56 PM 63.0 °F 51.1 °F 65% 30.04 in - NNE 8.1 mph - N/A   Unknown
3:56 PM 64.9 °F 50.0 °F 58% 30.04 in - NNW 4.6 mph - N/A   Unknown
4:56 PM 64.0 °F 50.0 °F 60% 30.04 in - NNW 5.8 mph - N/A   Unknown
5:56 PM 64.0 °F 50.0 °F 60% 30.04 in - North 4.6 mph - N/A   Unknown
7:56 PM - - N/A% - - North - - N/A   Unknown
8:56 PM 57.0 °F 55.0 °F 93% 30.08 in - SSE 3.5 mph - N/A   Unknown
9:56 PM 55.9 °F 55.0 °F 97% 30.09 in - ESE 4.6 mph - N/A   Unknown
10:56 PM 55.9 °F 55.0 °F 97% 30.06 in - SE 5.8 mph - N/A   Unknown
11:56 PM 55.0 °F 55.0 °F 100% 30.06 in - Variable 3.5 mph - N/A   Unknown